RH
19 19 22 29 32 32 33 71 100 93 96 99 100 100 97 100 100 100 92 54 20 21 20 34 35 23 23 24 22 23 24 24 24 24 22 20 19 19 19 20 20 18 17
22 21 21 30 30 31 36 73 94 100 100 100 100 100 100 96 81 53 30 19 23 27 28 26 24 22 21 22 24 24 22 22 22 20 19 18 17 16 17 16 16 15 16
26 26 24 30 31 30 30 57 72 74 87 93 97 87 64 41 31 22 22 29 30 23 21 23 23 21 22 25 27 25 22 22 20 19 20 20 22 22 22 19 17 15 15
28 30 32 35 34 30 30 32 42 55 79 83 64 46 31 24 22 28 30 26 22 21 23 24 25 26 28 28 25 24 24 21 20 20 19 19 17 14 16 22 23 22 23
31 34 33 32 32 32 30 27 30 67 84 52 41 32 28 26 25 24 24 23 23 25 25 26 26 26 25 25 23 23 23 23 22 20 20 20 16 13 14 13 18 22 25
34 34 33 30 35 35 33 28 34 82 67 47 37 34 31 30 28 27 27 26 28 30 28 29 27 29 26 25 22 22 21 20 20 21 22 19 15 16 14 12 12 14 23
31 33 33 30 35 33 29 28 46 77 59 46 38 34 32 31 30 31 30 33 32 29 31 33 32 28 27 23 23 23 22 20 22 23 20 15 15 14 14 14 14 14 20
32 33 34 30 34 32 32 34 54 71 55 46 40 35 34 31 32 32 33 32 31 32 37 37 33 31 29 26 25 27 24 22 23 22 17 17 16 15 15 15 17 20 27
34 35 35 33 38 36 32 36 61 65 56 46 42 40 37 36 34 34 33 33 35 40 38 34 33 32 30 29 31 32 23 25 25 20 19 18 17 20 24 24 25 25 25
37 37 35 35 44 41 36 48 60 62 57 49 44 42 42 42 38 36 36 42 44 42 36 36 35 34 31 32 35 26 25 28 24 21 19 20 25 29 32 30 34 31 23
40 45 38 39 53 52 46 60 65 60 57 52 48 45 44 46 42 40 46 49 47 42 39 37 36 32 35 37 29 26 30 28 21 20 24 28 30 32 34 36 30 27 24
36 40 41 38 51 65 68 64 65 63 58 54 51 48 49 51 47 47 54 50 46 41 41 36 34 36 38 33 26 30 30 22 21 25 32 33 32 37 34 29 27 28 27
43 53 50 44 58 71 68 65 67 66 60 55 52 51 53 52 50 52 52 50 44 41 38 38 40 38 35 28 29 30 21 23 27 31 31 33 36 31 28 30 31 26 22
45 53 50 46 57 68 70 71 70 66 60 56 54 54 55 55 55 54 54 49 44 41 40 42 37 35 30 30 30 21 24 30 30 30 37 35 30 30 35 31 24 22 15
57 60 50 46 60 71 70 73 73 66 58 55 55 56 57 55 52 53 48 43 41 42 40 35 35 31 33 29 22 29 32 30 35 43 37 36 35 35 29 23 18 12 6
62 59 54 54 56 68 73 75 75 65 57 55 54 53 53 53 51 46 43 42 40 37 36 36 32 36 28 24 34 31 31 39 43 37 44 44 38 30 25 18 10 6 4
60 52 61 72 81 74 71 70 72 67 63 59 55 54 53 51 49 46 45 40 37 38 34 34 34 26 27 33 30 33 46 41 43 49 46 38 29 24 15 9 8 6 5
62 69 80 87 80 73 75 77 74 71 70 68 62 58 58 55 51 46 42 41 37 34 37 31 25 33 31 30 38 48 44 49 54 46 39 29 22 12 8 8 7 5 5
80 84 86 86 87 84 76 70 67 69 69 66 62 58 52 47 48 47 42 35 38 35 27 26 32 35 32 45 45 45 54 57 52 40 33 21 11 9 9 7 6 5 5
86 87 84 81 77 76 76 71 68 65 64 64 60 57 56 54 45 39 39 38 30 25 33 34 34 35 48 42 49 58 53 49 43 37 19 12 10 10 7 5 6 6 4
81 82 82 80 78 79 76 73 69 68 70 69 66 58 48 42 41 40 32 26 31 36 36 33 42 47 45 51 52 50 50 42 34 16 13 11 10 7 6 6 5 4 4
80 78 77 77 74 70 70 69 70 72 68 56 49 46 45 42 33 27 30 37 36 34 36 51 52 56 55 48 51 53 50 35 16 14 11 10 7 6 6 5 5 4 4
82 77 72 70 70 75 75 67 59 55 51 47 49 43 32 28 30 36 36 33 32 44 53 56 64 56 54 55 56 59 33 17 16 12 9 6 6 6 5 5 4 4 4
76 77 75 73 69 60 58 56 59 56 49 38 30 28 31 37 36 34 33 40 56 61 64 59 51 57 58 61 59 27 18 16 12 10 6 6 6 6 5 4 4 5 6
71 74 74 71 70 71 63 48 38 33 29 27 34 40 36 34 35 48 57 63 66 63 52 52 58 57 62 50 23 18 12 10 10 6 6 6 5 5 4 5 5 6 7
73 73 65 54 43 36 31 29 29 33 40 45 40 34 35 48 59 60 69 63 58 50 53 52 54 58 40 20 16 13 10 9 6 6 6 6 5 4 5 6 7 8 9
Wind_Speed
77 74 68 63 58 52 52 50 48 52 58 65 65 61 60 59 58 51 53 52 47 47 46 44 42 40 41 42 43 43 43 46 49 52 54 55 58 61 64 66 68 69 71
75 75 71 65 59 53 49 47 45 42 41 42 43 45 46 47 49 48 48 46 46 44 41 42 41 43 43 43 45 47 47 49 51 53 55 58 61 62 66 70 73 75 77
73 74 72 67 60 54 49 47 45 43 40 39 41 43 45 45 45 44 43 43 41 40 42 42 42 44 46 46 48 51 53 55 56 58 60 62 67 71 79 81 81 82 84
71 73 71 67 61 54 49 46 44 43 38 37 39 41 40 40 40 40 39 39 39 41 42 45 46 47 48 50 53 57 60 62 65 67 69 71 74 76 77 86 89 88 87
71 72 72 68 61 52 48 46 45 41 37 38 38 37 37 37 35 37 39 40 43 44 44 47 50 50 52 55 58 61 64 68 71 74 77 80 83 86 85 82 85 87 89
70 73 72 67 60 54 50 47 44 39 39 39 39 41 40 39 40 41 42 44 45 46 49 52 54 55 56 59 63 67 70 74 78 81 83 86 91 96 97 92 87 81 82
71 73 70 67 60 55 50 48 44 40 42 42 43 43 43 44 43 44 46 47 48 51 53 55 57 60 62 65 69 74 77 82 85 88 91 96 101 102 97 89 84 82 85
70 70 70 66 59 54 52 50 45 42 43 45 45 46 47 47 47 49 49 50 53 55 57 59 61 66 68 72 76 82 87 90 93 96 100 105 104 95 93 91 92 88 87
69 68 70 66 58 55 53 50 45 44 46 48 48 48 50 50 51 52 53 55 58 59 61 63 68 72 75 78 84 90 93 97 101 104 110 106 97 96 99 99 95 90 81
72 71 70 62 58 56 52 50 47 47 47 49 50 51 52 52 53 55 57 59 61 63 65 69 73 77 81 86 91 96 99 104 108 113 107 100 100 101 99 99 98 96 96
75 73 69 61 57 55 52 51 48 48 49 51 53 54 53 53 55 58 60 64 66 68 71 75 79 82 88 92 98 101 105 110 115 109 102 104 102 100 101 98 99 102 108
70 69 66 60 57 56 53 51 50 51 52 53 54 55 56 56 59 62 64 67 71 74 76 80 83 88 93 99 102 107 111 116 110 105 105 103 102 100 98 101 106 113 120
69 68 63 60 58 55 52 52 51 52 53 54 56 56 57 59 62 65 68 71 74 76 80 84 89 94 99 103 108 112 116 111 107 107 102 102 99 101 105 112 117 122 127
69 67 62 59 55 54 52 52 52 52 53 55 56 58 60 62 65 68 72 75 78 81 85 91 94 98 103 107 112 116 110 108 107 103 102 100 104 109 115 121 126 130 131
67 64 60 56 54 54 52 51 51 52 54 55 58 60 63 66 69 72 76 80 83 87 91 94 98 103 107 111 115 107 108 105 103 100 103 109 114 119 125 130 131 131 123
63 60 58 54 52 50 49 49 51 53 56 59 61 64 67 70 73 77 80 84 87 91 94 98 102 106 111 112 106 107 103 102 99 103 110 117 122 127 131 132 130 122 108
60 57 52 50 48 46 47 49 52 54 58 60 64 67 71 73 77 81 83 87 91 94 98 101 106 110 108 105 105 100 99 100 106 113 118 124 128 131 130 125 118 109 102
56 53 51 49 47 46 47 51 54 57 59 63 66 69 72 75 78 81 85 89 93 97 101 106 108 103 104 101 98 96 100 107 115 121 127 130 130 129 121 112 106 102 96
54 51 49 47 46 48 50 53 55 57 60 63 67 70 72 75 79 83 88 92 96 101 105 103 100 101 98 96 95 100 106 113 120 126 131 131 126 118 108 102 99 94 88
50 48 48 48 48 50 52 53 56 59 62 65 68 71 74 78 83 87 91 96 101 101 97 98 98 94 91 95 100 107 112 118 124 130 130 124 116 107 102 97 89 85 81
47 46 46 47 49 51 54 57 60 62 66 69 72 75 79 83 87 91 96 97 94 93 95 94 91 89 95 100 107 113 120 125 128 126 119 111 105 102 96 89 82 77 75
46 46 47 49 51 55 58 60 62 65 69 72 75 79 83 87 91 92 90 89 91 92 89 86 90 96 102 107 112 120 126 129 124 117 109 102 99 93 86 81 76 72 66
46 48 51 53 54 57 60 63 65 68 71 74 79 83 86 87 85 85 87 88 85 81 82 87 94 100 107 112 119 126 127 123 117 108 101 97 90 83 79 74 69 63 58
49 51 53 56 58 59 61 64 67 71 75 78 81 82 79 79 83 83 81 76 76 81 87 92 98 105 111 118 124 123 119 113 105 98 95 87 81 77 74 70 63 57 53
49 51 54 57 59 61 65 69 72 74 77 77 73 74 77 78 75 69 69 75 80 86 91 97 103 109 115 121 118 113 107 99 94 91 84 79 75 70 65 59 56 52 46
51 54 57 60 63 66 68 71 70 67 66 69 72 74 71 65 65 69 75 80 86 91 98 103 109 116 120 114 109 104 97 91 89 82 77 74 69 65 58 54 50 46 42
Wind_Direction
233 235 236 238 242 246 249 253 254 253 254 255 258 261 265 269 270 270 273 274 276 279 285 290 290 295 295 293 296 297 298 297 298 298 298 299 299 299 297 294 291 288 286
231 233 236 238 241 243 247 252 250 245 244 247 252 257 260 264 267 267 270 273 278 281 284 286 287 288 289 293 294 294 294 294 295 297 298 301 300 298 297 294 290 288 285
229 230 234 237 239 242 244 249 251 250 247 251 253 255 259 260 262 266 270 273 276 280 282 283 283 286 289 291 292 294 294 293 294 295 296 298 302 302 303 300 296 293 289
227 226 229 233 236 240 242 246 247 246 246 248 253 256 258 259 263 266 268 271 275 277 282 284 287 288 288 290 293 292 294 295 294 295 295 295 297 298 299 300 298 295 292
224 223 225 229 234 238 240 241 244 242 244 249 254 258 258 259 260 264 267 271 274 278 281 284 286 288 290 292 293 294 295 295 296 296 297 297 297 296 294 292 292 292 289
222 221 223 225 229 234 235 238 242 238 243 248 251 255 257 260 262 265 268 272 276 279 282 284 287 288 289 292 294 296 298 298 298 298 298 299 300 300 298 294 289 286 286
221 220 221 223 226 232 234 238 239 238 243 248 251 256 258 260 263 265 269 274 277 282 283 285 287 288 291 293 295 299 300 301 302 302 302 302 302 301 297 295 292 290 290
219 219 219 221 225 230 232 236 238 239 244 248 252 258 259 264 265 267 272 275 280 282 283 285 288 290 292 295 298 300 303 304 304 304 305 305 303 301 299 297 296 293 293
215 216 217 218 223 228 231 236 238 240 244 249 254 259 263 265 269 272 276 279 282 283 286 288 291 293 296 298 300 303 304 305 306 307 306 306 304 303 303 301 299 296 292
210 211 213 215 221 226 231 236 238 240 246 251 256 260 264 268 273 276 279 281 283 285 286 289 293 295 297 299 302 304 305 306 307 307 307 306 305 304 303 303 302 300 298
205 206 210 210 218 225 230 235 239 243 248 253 257 263 267 272 274 277 280 283 284 286 288 291 295 297 298 302 303 305 305 306 307 307 307 306 306 304 304 302 301 301 300
204 204 209 210 217 224 230 235 240 244 250 255 261 265 270 273 276 279 281 285 286 288 291 294 296 298 301 301 304 305 306 307 307 307 307 307 305 304 303 302 303 304 303
199 202 207 211 217 223 230 237 242 247 252 257 262 268 271 274 276 279 283 286 289 292 294 297 298 300 300 304 304 306 307 307 306 307 306 305 304 304 305 306 305 304 303
198 202 206 212 218 225 231 238 244 250 255 261 266 270 273 275 278 281 284 288 291 293 296 298 299 300 302 303 305 306 307 306 307 306 306 306 306 307 307 306 305 304 304
198 203 208 213 220 226 233 240 247 252 258 263 267 270 273 276 279 283 286 290 292 295 297 298 300 301 303 304 305 306 306 307 307 307 307 307 308 308 307 307 307 307 307
200 205 211 217 223 230 237 244 250 254 259 263 267 272 275 278 281 285 288 291 294 295 297 299 300 302 304 305 305 306 307 307 307 308 308 308 308 308 309 309 309 308 308
202 208 216 222 229 236 242 248 252 257 262 266 271 274 278 281 284 287 290 292 294 297 298 300 303 304 304 304 307 308 308 308 309 309 308 307 308 310 310 310 310 310 310
206 213 219 226 234 241 247 253 257 262 266 270 273 277 281 284 287 289 291 293 295 298 301 302 303 303 305 307 307 308 309 310 310 309 309 309 311 311 312 312 311 311 311
211 217 224 232 239 245 251 256 261 266 270 274 277 281 284 286 288 290 293 296 299 301 301 302 303 305 307 308 308 309 311 310 310 309 309 311 312 312 311 312 311 311 310
215 221 228 235 242 249 256 261 265 269 273 278 281 284 287 289 291 294 297 299 299 300 301 303 305 306 307 308 310 310 310 309 310 311 312 313 313 313 312 312 313 312 313
222 228 235 243 249 254 259 263 268 272 277 281 285 287 289 292 295 297 297 299 300 301 303 305 306 307 308 310 311 312 310 311 312 313 313 313 313 313 313 314 314 315 314
229 235 241 248 254 259 263 269 273 277 280 283 287 290 293 294 295 297 298 299 301 303 305 306 308 309 311 313 313 313 313 313 313 314 314 314 313 313 314 315 317 316 316
237 242 247 253 260 266 270 273 277 280 284 288 290 291 293 295 296 297 299 302 303 304 306 308 309 311 313 314 314 314 313 313 314 314 314 314 314 315 316 317 317 317 317
245 250 255 261 266 272 276 280 284 286 286 288 291 293 295 295 298 301 302 303 304 306 308 310 312 314 314 315 313 312 312 313 314 313 314 315 316 318 319 318 319 319 318
255 261 266 270 274 277 279 280 283 286 287 290 292 293 296 300 302 303 303 305 307 308 311 313 314 315 315 313 312 311 313 315 314 314 315 317 319 320 319 320 320 318 316
261 265 268 270 273 276 279 282 286 288 290 291 294 298 300 301 302 304 306 308 309 312 313 315 316 317 313 313 313 315 316 316 316 317 318 321 322 321 321 321 318 316 316